Location: Ay?beleni
(36.6500°N, 30.3000°E)
Time: 03:40:43
(UTC+00:00)

CZ-4C R/B - Pass Details

Date: 16 October 2021
Orbit: 403 x 482 km, 97.7° (Epoch: 08 December)

Event Time Altitude Azimuth Distance (km) Brightness Sun altitude
Rises 15:47:45 0° 20° (NNE) 2,489 6.4 -6.1°
Reaches altitude 10° 15:49:55 10° 29° (NNE) 1,596 5.3 -6.6°
Maximum altitude 15:53:07 37° 98° (E) 711 3.4 -7.2°
Drops below altitude 10° 15:56:13 10° 168° (SSE) 1,541 5.6 -7.8°
Sets 15:58:17 0° 177° (S) 2,389 6.6 -8.2°
